Flag for Germany Weather past 2 weeks in Warendorf, North Rhine-Westphalia, Germany

Now
66 °F

Sunny.


Feels Like: 66 °F
Forecast: 50 / 61 °F
Wind: 10 mph from South

Location: Muenster / Osnabrueck

Current Time: May 5, 2015 at 11:25:24 AM

Latest Report: May 5, 2015 at 10:50 AM


Visibility: 10 mi

Pressure: 29.45 "Hg

Humidity: 78%

Dew point: 59 °F

Location of WarendorfLocation

Historic Weather in Warendorf — Graph

°F

Warendorf temperature yesterday

Maximum temperature yesterday: 66 °F (at 3:50 PM)
Minimum temperature yesterday: 55 °F (at 3:50 AM)
Average temperature yesterday: 61 °F

Past Weeks' High & Low Weather Summary

 TemperatureHumidityPressure
High68 °F (Apr 21, 2:20 PM)100% (Apr 21, 3:20 AM)30.45 "Hg (Apr 21, 3:20 AM)
Low30 °F (Apr 28, 4:20 AM)28% (Apr 21, 3:20 PM)29.42 "Hg (May 5, 5:20 AM)
Average51 °F72%29.93 "Hg
* Reported Apr 20 10:20 AM — May 5 10:20 AM, Warendorf, Weather by CustomWeather, © 2015

Note: Actual official high and low records may vary slightly from our data, if they occured in-between our weather recording intervals... More about our weather records

Advertising

Warendorf weather history for previous 24 hours

 ConditionsComfort  
Time TempWeatherWind HumidityBarometerVisibility
10:20 AM
Tue, May 5
66 °FLight rain. Partly sunny.16 mph78%29.47 "HgN/A
9:50 AM68 °FSunny.14 mph69%29.45 "Hg10 mi
9:20 AM68 °FSunny.13 mph73%29.42 "Hg10 mi
8:50 AM66 °FSunny.12 mph78%29.45 "Hg10 mi
8:20 AM66 °FSunny.12 mph78%29.45 "Hg10 mi
7:50 AM64 °FScattered clouds.10 mph83%29.45 "HgN/A
7:20 AM63 °FScattered clouds.10 mph83%29.45 "HgN/A
6:50 AM59 °FPassing clouds.8 mph94%29.42 "HgN/A
6:20 AM59 °FClear.6 mph94%29.42 "Hg10 mi
5:20 AM57 °FClear.7 mph94%29.42 "Hg10 mi
4:50 AM57 °FClear.8 mph94%29.45 "Hg10 mi
4:20 AM59 °FPassing clouds.8 mph94%29.45 "HgN/A
3:50 AM57 °FLight rain. Partly cloudy.8 mph100%29.47 "HgN/A
3:20 AM57 °FLight rain. Partly cloudy.7 mph94%29.50 "HgN/A
2:50 AM57 °FLight rain. Partly cloudy.8 mph100%29.50 "HgN/A
2:20 AM57 °FRain. Passing clouds.10 mph94%29.53 "HgN/A
1:50 AM59 °FLight rain. Clear.7 mph88%29.56 "HgN/A
1:20 AM59 °FLight rain. Clear.5 mph82%29.59 "HgN/A
12:50 AM61 °FLight rain. Clear.6 mph77%29.59 "HgN/A
12:20 AM63 °FLight rain. Clear.6 mph68%29.62 "HgN/A
11:50 PM
Mon, May 4
63 °FLight rain. Clear.7 mph68%29.62 "HgN/A
10:50 PM61 °FClear.6 mph68%29.65 "Hg10 mi
10:20 PM61 °FClear.5 mph68%29.68 "Hg10 mi
9:50 PM61 °FSunny.5 mph68%29.68 "Hg10 mi
9:20 PM63 °FSunny.6 mph64%29.71 "Hg10 mi
8:50 PM63 °FSunny.5 mph68%29.71 "Hg10 mi
8:20 PM64 °FSunny.3 mph60%29.71 "Hg10 mi
7:50 PM66 °FSunny.1 mph56%29.71 "Hg10 mi
7:20 PM66 °FPartly sunny.2 mph56%29.74 "HgN/A
6:50 PM66 °FPartly sunny.5 mph56%29.74 "HgN/A
6:20 PM66 °FPartly sunny.7 mph56%29.77 "HgN/A
5:50 PM66 °FScattered clouds.N/A56%29.77 "HgN/A
5:20 PM66 °FScattered clouds.8 mph56%29.77 "HgN/A
4:50 PM66 °FPartly sunny.6 mph56%29.77 "HgN/A
4:20 PM64 °FBroken clouds.9 mph60%29.77 "HgN/A
3:50 PM66 °FPartly sunny.10 mph60%29.80 "HgN/A
3:20 PM64 °FPartly sunny.10 mph60%29.80 "HgN/A
2:50 PM64 °FPartly sunny.9 mph60%29.80 "HgN/A
2:20 PM64 °FBroken clouds.10 mph60%29.80 "HgN/A
1:50 PM64 °FBroken clouds.8 mph64%29.77 "HgN/A
1:20 PM63 °FBroken clouds.12 mph68%29.80 "HgN/A
12:50 PM63 °FBroken clouds.9 mph68%29.80 "HgN/A
12:20 PM63 °FBroken clouds.13 mph68%29.80 "HgN/A
11:50 AM63 °FBroken clouds.13 mph73%29.77 "HgN/A
11:20 AM63 °FBroken clouds.10 mph73%29.77 "HgN/A
Weather by CustomWeather, © 2015

See weather overviewHow to use our weather pages